Location: Albany
(35.0170°S, 117.8920°E)
Time: 02:03:14
(UTC+08:00)

Explorer 7 - Pass Details

Date: 25 January 2021
Orbit: 484 x 677 km, 50.3° (Epoch: 01 March)

Event Time Altitude Azimuth Distance (km) Brightness Sun altitude
Rises 14:48:43 0° 329° (NNW) 3,016 11.0 53.6°
Reaches altitude 10° 14:51:09 10° 335° (NNW) 2,112 10.3 53.1°
Maximum altitude 14:55:49 45° 46° (NE) 926 8.3 52.2°
Drops below altitude 10° 15:00:28 10° 118° (ESE) 2,099 9.5 51.3°
Sets 15:02:52 0° 124° (SE) 2,996 10.2 50.8°
